STARLINK-34655, 65027

Orbit data source: Space-Track

STARLINK-34655, 65027 is a payload satellite owned by SpaceX/Seattle (US) in LEO that was launched on Wed, 30 Jul 2025 UTC via an FALCON 9 launch vehicle from the Air Force Eastern Test Range (AFETR). Payload-class satellites include a variety of spacecraft equipped with specific instruments for various scientific and technological missions. These include communications satellites like Starlink; space stations such as the ISS; scientific satellites like the Hubble; Earth observation satellites from companies like Planet Labs, Umbra, and HawkEye 360; GPS; miniature CubeSats for education and research; and military/defense satellites.

Loading next visibility...
Identifier
65027, 2025-161N
Orbit
LEO
Country
Flag of USUS
Related business
Manufacturer
SpaceX/Seattle
Mission
Operational Commercial Communications
Bus & Motor
STARLINK V2MO, Unknown motor
Mass
575 kg wet, ~530 kg dry
Launch date (UTC)
2025-07-30 (4 months ago)
Launch vehicle
FALCON 9
Launch site
Air Force Eastern Test Range (AFETR)
Object type
Payload
Rocket body
Debris
Shape & HBR
Box + 2 Pan, 17.7 m
Radar Cross Section
36.964 m², Large (>1 m²)

Expand to show TLE details & history
Last TLE update: 10 hours ago

TLE from 10 hours ago
0 STARLINK-34655
1 65027U 25161N   25342.56730117  .00005024  00000-0  18176-3 0  9998
2 65027  53.1602 357.8078 0001726  87.2439 272.8759 15.30179375 21370
Epoch: 2025-12-08T13:36Z
TLE epoch observation values (Epoch: 2025-12-08T13:36:54.821Z)
Latitude
-0.00002°
Longitude
76.01488°
Altitude
476.117 km
Speed
7.629 km/s
True Right ascension
23h 51m 13s
True Declination
0° 00' 00"
Sunlit
Object was in daylight at epoch
Visualization orbit readout
Latitude
Unknown
Longitude
Unknown
Altitude
Unknown
Speed
Unknown
Apparent Right ascension
Unknown
Apparent Declination
Unknown
Sunlit
N/A
Visualization observer readout
Local Sidereal Time
21:57:35
Azimuth
Unknown
Elevation
Unknown
Doppler factor
Unknown
Orbital elements
Apogee altitude
476.716 km
Perigee altitude
474.35 km
Semi-major axis
6,853.67 km
Eccentricity
0.00017
Inclination
53.1602°
RAAN
357.8078°
Arg. of periapsis
87.2439°
True anomaly
272.85615°
Mean anomaly
272.8759°
Eccentric anomaly
272.86602°
Mean motion
3.82524 °/min
Orbital period
94.11 mins
BSTAR
0.00018176
Loading maneuver chart data...
Computing Atmospheric mass density...
Loading historical data...
Loading historical data...
Loading historical data...
Loading historical data...
Loading historical data...
Loading historical data...
Loading historical data...

Documentation

Showing up to 5 results
|